Tracking 19125 objects as of 19-Apr-2018
HD Live streaming from Space Station
objects crossing your sky now

ARIANE 5 R/B

Track ARIANE 5 R/B now!


NORAD ID: 33754
Int'l Code: 2009-008F
Perigee: 281.2 km
Apogee: 34,365.0 km
Inclination: 2.4 °
Period: 604.9 minutes
Semi major axis: 23694 km
RCS: 21.2292 m2 (large)
Launch date: February 12, 2009
Source: France (FR)
Launch site: FRENCH GUIANA (FRGUI)

Note: This is a ROCKET BODY
aabbcc
Your satellite tracking list
Your tracking list is empty




NASA's NSSDC Master Catalog

Two Line Element Set (TLE):
1 33754U 09008F   18108.97205589  .00000695  00000-0  35351-3 0  9992
2 33754   2.3811 301.9794 7192482 147.0284 290.5535  2.38036322 77991
Source of the keplerian elements: AFSPC